Tracking 30970 objects as of 3-Jul-2025
HD Live streaming from Space Station
objects crossing your sky now

FENGYUN 1C DEB

Track FENGYUN 1C DEB now!
10-day predictions


NORAD ID: 32088
Int'l Code: 1999-025CQE
Perigee: 829.3 km
Apogee: 1,520.7 km
Inclination: 102.4 °
Period: 108.7 minutes
Semi major axis: 7545 km
RCS: 0.0006 m2 (small)
Launch date: May 10, 1999
Source: People's Republic of China (PRC)
Launch site: Taiyaun Space Center, China (TSC)

Note: This is SATELLITE DEBRIS
Your satellite tracking list
OPS 9317 (IDSCS 7)
Track 1 satellite(s)




NASA's NSSDC Master Catalog

Two Line Element Set (TLE):
1 32088U 99025CQE 25183.37474196  .00001244  00000-0  17317-2 0  9998
2 32088 102.4037  17.9013 0458101 348.0238  11.0270 13.24428435576812
Source of the keplerian elements: AFSPC